Vorticity
10 4 2 5 10 7 3 12 10 10 4 8 6 12 9 6 6 6 6 21 18 9 22 1 -12 15 -7 -2 0 13 4 5 18 26 7 -4 5 2 6 -0 3 6 2 -2 -2 -2 5 6 6
8 6 2 5 8 5 6 10 10 8 6 6 3 16 4 3 7 3 8 3 15 4 5 18 -5 13 5 1 30 -7 -2 5 12 16 14 15 -6 8 5 4 -6 -11 4 8 10 4 6 5 6
6 6 4 9 8 -2 14 10 8 4 6 8 5 11 6 -2 3 6 7 -1 1 8 18 -6 23 17 10 18 7 0 4 5 10 21 22 6 3 4 -2 4 7 4 6 4 2 4 6 7 6
12 6 5 16 3 1 17 8 7 7 14 11 5 7 14 6 4 5 13 5 -10 -1 11 8 2 9 14 13 -2 11 4 4 -0 37 10 2 4 3 2 -3 2 5 5 3 4 6 7 5 5
6 1 12 12 4 3 20 7 8 7 8 10 8 1 8 9 15 12 1 8 15 12 12 17 8 8 -1 7 -3 15 -1 9 9 27 8 5 0 5 -1 1 4 2 4 6 7 5 7 9 7
6 7 16 4 2 8 16 6 6 5 13 4 5 9 11 11 16 16 11 19 18 8 10 12 10 9 11 -2 10 6 5 18 0 15 19 23 -2 -1 2 3 1 3 2 8 8 10 5 4 7
3 14 8 4 2 20 8 6 3 6 12 8 9 12 -2 21 11 6 12 9 4 9 26 23 -2 -9 11 17 19 16 13 9 -14 19 20 -17 -5 5 -3 5 3 3 7 2 5 1 6 5 6
9 12 5 3 1 25 5 5 9 10 11 11 4 4 2 5 10 10 10 14 8 22 12 25 1 24 -8 38 -33 3 10 1 19 19 1 23 -0 3 1 2 3 2 4 1 2 2 -2 9 1
14 5 5 3 5 11 7 8 4 8 15 8 11 7 5 1 3 2 5 8 8 5 15 2 74 -0 21 -27 13 0 9 -15 11 -8 31 9 -10 -4 2 2 1 2 5 5 0 3 3 4 -3
12 5 5 3 7 11 8 9 12 18 14 10 2 3 5 6 7 3 4 6 8 7 16 4 49 17 -14 28 -5 26 31 -15 -3 10 -16 23 0 -12 1 3 2 -0 2 5 4 -2 2 9 11
9 6 3 4 5 13 11 3 -2 5 14 10 8 -0 6 9 15 20 22 11 5 9 6 11 19 12 14 27 28 40 -8 -2 -0 12 8 8 16 10 -3 0 2 5 4 -0 0 11 3 7 8
6 8 5 4 3 8 15 6 -1 -1 6 5 8 9 11 14 11 17 19 18 22 11 6 5 2 10 17 13 14 22 38 8 28 -0 12 25 7 -3 2 4 -2 10 9 11 -1 2 -9 21 9
7 4 2 3 3 10 12 6 5 11 1 2 2 4 13 14 10 13 12 31 26 15 7 6 3 4 7 0 31 -8 17 29 15 -3 -8 21 2 -11 0 2 12 -0 -3 9 -9 6 6 -6 5
8 3 1 3 4 9 10 11 8 7 -2 2 9 1 8 16 6 8 13 31 12 12 5 4 19 6 8 15 15 18 38 30 17 16 13 29 5 9 -3 11 -5 -1 9 10 8 -5 7 10 12
10 5 0 5 3 6 12 7 6 8 9 3 4 6 4 16 11 11 23 17 8 4 4 13 19 7 3 6 23 17 7 5 -7 -6 28 13 31 14 4 -1 -1 -5 2 2 7 4 6 7 15
5 10 1 5 2 5 9 4 12 8 7 6 3 5 6 4 8 8 16 15 8 4 8 16 4 11 -3 12 -4 9 25 26 23 13 17 21 17 4 0 5 8 12 7 4 -2 6 6 9 9
4 6 9 2 4 7 7 13 6 9 3 7 3 4 10 4 5 4 3 10 15 17 12 16 10 11 5 5 10 1 4 12 1 11 14 1 7 6 10 5 6 8 10 7 5 -1 9 14 14
14 7 8 5 4 6 7 9 8 15 7 5 1 3 7 6 2 2 3 5 2 4 5 4 9 14 11 8 1 22 -2 14 -3 7 8 1 -0 5 6 4 3 5 4 3 7 9 11 12 9
11 3 8 3 4 4 8 6 3 19 8 7 12 7 4 9 7 3 2 2 4 5 8 6 26 23 18 8 11 4 15 -16 8 1 2 8 10 12 10 -6 0 3 5 8 7 10 20 19 16
11 7 10 7 5 6 6 4 6 10 8 7 15 7 3 9 7 8 7 5 9 9 7 7 58 34 14 13 9 10 -3 -9 -9 8 5 6 9 1 2 6 9 2 3 10 8 25 19 13 7
7 7 9 7 6 4 8 9 10 11 18 9 16 8 8 7 11 7 8 11 10 10 6 7 33 40 29 -21 -6 12 0 -5 27 -12 21 -8 -2 11 10 8 1 -1 6 11 26 14 10 6 4
4 5 2 8 6 1 3 13 4 5 14 18 10 7 3 8 9 8 6 8 9 7 6 8 5 4 22 42 20 7 -3 2 -6 -8 14 22 20 22 7 9 -2 11 12 22 10 8 4 4 6
2 2 4 7 5 5 3 5 1 9 14 26 8 10 2 3 9 9 8 10 7 6 6 6 6 9 9 6 11 20 35 22 7 4 21 1 -4 5 10 13 16 4 8 6 9 3 3 4 5
7 -0 4 -0 2 5 2 6 12 14 7 19 5 6 3 2 5 8 5 6 7 9 12 10 9 8 11 8 10 8 9 17 42 35 14 23 34 26 22 28 22 19 13 7 1 3 3 3 6
5 4 1 1 3 -1 3 8 -5 10 9 18 4 11 3 -4 12 8 5 4 0 2 5 6 8 10 8 13 11 8 9 8 6 8 7 7 3 3 2 3 6 2 2 2 4 2 2 6 8
13 7 4 7 3 2 1 11 -1 4 24 8 18 6 6 7 3 11 5 5 -1 5 4 3 1 11 6 7 8 8 6 8 8 10 4 -2 6 8 6 5 6 10 5 5 3 8 5 10 18
8 5 5 6 4 5 4 5 5 0 18 17 -4 23 7 4 1 4 1 8 2 9 -2 5 6 5 17 5 5 5 8 12 13 11 7 5 5 2 0 8 9 10 14 17 14 10 5 -1 9
10 7 6 6 4 4 3 3 6 2 14 9 17 18 8 4 3 9 3 8 13 11 8 13 9 5 6 22 10 7 6 4 2 6 5 7 13 12 6 5 5 4 5 9 9 11 15 -1 16
11 12 7 4 4 4 4 4 7 5 20 15 17 7 10 14 9 7 11 7 16 6 3 7 10 7 7 7 -3 9 -7 14 9 9 4 7 13 4 7 4 2 6 5 3 5 4 12 7 -4
9 11 6 7 6 5 6 5 7 4 8 22 11 3 19 8 8 4 1 -8 8 7 3 1 11 12 14 9 9 12 16 31 22 8 -1 -5 6 10 19 8 3 7 5 12 19 7 1 18 -11
Height
5817 5816 5813 5812 5812 5807 5806 5803 5799 5796 5794 5791 5789 5788 5786 5784 5783 5785 5783 5783 5784 5783 5786 5788 5791 5793 5795 5796 5799 5805 5808 5812 5818 5821 5824 5828 5832 5835 5838 5840 5840 5843 5846 5848 5849 5849 5851 5852 5852
5813 5811 5809 5807 5807 5803 5802 5798 5795 5793 5790 5788 5787 5785 5783 5782 5779 5778 5778 5778 5779 5779 5780 5783 5787 5791 5791 5794 5798 5802 5803 5809 5812 5818 5821 5824 5828 5832 5834 5836 5837 5840 5843 5844 5846 5847 5848 5849 5851
5809 5807 5806 5803 5802 5800 5797 5793 5792 5790 5787 5785 5783 5781 5779 5778 5775 5772 5772 5774 5773 5775 5775 5778 5782 5785 5788 5791 5795 5797 5801 5805 5809 5812 5815 5818 5824 5829 5830 5833 5835 5837 5840 5841 5843 5844 5846 5848 5849
5804 5802 5801 5799 5798 5796 5793 5791 5789 5786 5785 5783 5780 5778 5776 5773 5771 5770 5768 5768 5766 5768 5771 5774 5777 5780 5784 5787 5789 5794 5798 5802 5806 5808 5811 5817 5821 5825 5828 5829 5831 5833 5836 5838 5838 5841 5842 5844 5845
5801 5798 5796 5795 5794 5792 5790 5788 5785 5783 5780 5778 5776 5774 5772 5772 5767 5766 5763 5761 5760 5762 5763 5766 5769 5772 5776 5781 5784 5788 5793 5800 5803 5805 5808 5813 5818 5822 5824 5824 5827 5830 5833 5834 5835 5836 5838 5840 5841
5796 5794 5793 5792 5790 5787 5785 5783 5781 5778 5775 5773 5772 5769 5769 5766 5763 5761 5758 5755 5754 5756 5756 5756 5761 5763 5768 5773 5777 5781 5788 5792 5797 5801 5803 5807 5814 5818 5819 5820 5822 5825 5828 5829 5831 5834 5835 5837 5838
5792 5789 5789 5788 5785 5784 5781 5778 5776 5774 5771 5769 5767 5764 5764 5760 5757 5755 5753 5750 5750 5749 5747 5746 5751 5753 5758 5762 5766 5774 5778 5783 5789 5795 5798 5802 5810 5813 5815 5818 5819 5821 5823 5825 5828 5831 5832 5835 5834
5787 5785 5785 5784 5783 5781 5777 5774 5772 5770 5768 5766 5762 5761 5759 5756 5754 5751 5747 5747 5746 5745 5744 5745 5746 5745 5755 5751 5761 5767 5770 5774 5780 5787 5792 5797 5803 5809 5812 5814 5815 5816 5819 5822 5825 5827 5829 5830 5830
5782 5782 5782 5780 5780 5776 5773 5771 5769 5767 5765 5762 5760 5757 5755 5752 5750 5748 5744 5741 5742 5741 5741 5740 5734 5742 5745 5755 5757 5760 5761 5763 5773 5781 5784 5790 5797 5806 5808 5810 5812 5814 5815 5818 5820 5822 5824 5826 5825
5777 5778 5777 5776 5776 5772 5770 5767 5766 5765 5763 5759 5757 5755 5752 5749 5747 5743 5740 5737 5738 5737 5735 5737 5735 5739 5740 5749 5751 5751 5759 5762 5769 5774 5779 5785 5792 5799 5805 5807 5810 5811 5812 5814 5817 5819 5821 5820 5821
5774 5774 5773 5772 5772 5768 5767 5764 5764 5762 5761 5757 5754 5751 5748 5744 5740 5738 5735 5732 5734 5736 5736 5736 5737 5738 5741 5742 5745 5747 5753 5758 5764 5768 5773 5780 5787 5793 5799 5802 5805 5807 5809 5810 5812 5814 5817 5817 5817
5770 5769 5769 5768 5768 5765 5763 5761 5761 5760 5758 5754 5752 5749 5745 5740 5735 5733 5729 5726 5727 5732 5735 5737 5736 5737 5738 5739 5740 5742 5744 5750 5756 5763 5767 5774 5783 5788 5792 5797 5801 5802 5803 5805 5809 5811 5812 5813 5813
5765 5763 5765 5764 5763 5762 5759 5759 5758 5758 5755 5751 5749 5747 5741 5736 5733 5730 5727 5723 5724 5727 5732 5735 5737 5736 5736 5735 5734 5738 5740 5745 5752 5757 5764 5771 5778 5782 5788 5792 5797 5797 5798 5800 5804 5807 5806 5806 5808
5760 5759 5760 5760 5759 5758 5756 5755 5755 5754 5754 5749 5746 5744 5739 5735 5732 5729 5726 5723 5724 5727 5730 5732 5734 5734 5735 5733 5734 5736 5736 5742 5750 5756 5761 5765 5773 5779 5782 5787 5791 5792 5793 5795 5799 5801 5801 5801 5803
5754 5755 5754 5754 5755 5754 5753 5753 5752 5752 5752 5748 5744 5741 5738 5735 5732 5729 5727 5725 5725 5727 5727 5729 5731 5733 5733 5732 5733 5734 5736 5743 5749 5754 5760 5766 5770 5773 5777 5783 5784 5786 5788 5791 5794 5796 5796 5797 5799
5748 5749 5750 5749 5750 5751 5750 5750 5749 5750 5749 5746 5743 5740 5738 5734 5732 5729 5728 5726 5725 5724 5725 5727 5729 5732 5732 5733 5733 5735 5737 5741 5747 5750 5757 5762 5767 5770 5774 5778 5778 5780 5782 5786 5789 5790 5791 5791 5793
5742 5744 5745 5744 5746 5748 5747 5748 5745 5745 5746 5744 5742 5739 5738 5735 5732 5731 5729 5728 5726 5725 5725 5726 5727 5730 5731 5731 5733 5734 5737 5739 5745 5750 5755 5760 5764 5768 5771 5772 5773 5774 5776 5781 5783 5785 5785 5786 5789
5738 5736 5737 5740 5742 5743 5743 5744 5742 5741 5742 5741 5740 5738 5736 5735 5731 5730 5729 5727 5726 5725 5724 5724 5724 5725 5729 5729 5731 5733 5735 5738 5744 5749 5753 5756 5760 5764 5767 5768 5770 5772 5774 5776 5777 5779 5780 5781 5783
5732 5730 5733 5735 5736 5737 5738 5738 5738 5737 5738 5738 5737 5735 5734 5732 5730 5729 5728 5728 5726 5723 5723 5720 5717 5717 5722 5727 5729 5733 5734 5738 5744 5747 5751 5754 5757 5759 5761 5763 5765 5769 5770 5772 5773 5774 5775 5776 5777
5725 5728 5730 5730 5730 5731 5734 5733 5733 5734 5734 5734 5734 5732 5731 5730 5729 5727 5726 5725 5724 5722 5719 5715 5705 5708 5716 5724 5727 5730 5733 5734 5739 5742 5747 5751 5752 5754 5755 5758 5760 5763 5765 5767 5768 5769 5770 5774 5775
5720 5724 5725 5725 5722 5724 5729 5730 5730 5729 5730 5731 5731 5730 5728 5728 5727 5725 5725 5724 5722 5720 5719 5716 5712 5711 5717 5721 5725 5726 5728 5731 5736 5739 5742 5745 5747 5748 5751 5753 5755 5757 5759 5761 5762 5764 5767 5770 5772
5714 5718 5718 5719 5716 5718 5722 5725 5726 5724 5727 5728 5728 5728 5724 5725 5726 5725 5724 5723 5722 5720 5718 5718 5718 5718 5718 5717 5719 5724 5727 5729 5732 5734 5737 5740 5741 5743 5744 5747 5750 5751 5754 5755 5758 5760 5762 5765 5766
5710 5709 5711 5711 5710 5714 5716 5720 5724 5722 5722 5723 5725 5725 5723 5722 5724 5724 5723 5722 5720 5720 5719 5719 5720 5718 5719 5718 5718 5722 5723 5723 5724 5727 5731 5735 5736 5738 5741 5741 5743 5746 5749 5751 5754 5756 5758 5760 5763
5701 5701 5703 5704 5705 5709 5712 5715 5719 5717 5717 5718 5720 5721 5720 5720 5720 5722 5721 5721 5720 5719 5719 5719 5720 5721 5720 5719 5721 5721 5723 5720 5720 5723 5728 5729 5732 5733 5736 5738 5739 5741 5744 5747 5749 5750 5753 5756 5756
5693 5694 5697 5697 5700 5705 5705 5706 5715 5714 5712 5714 5716 5717 5717 5718 5719 5720 5720 5720 5719 5719 5719 5718 5719 5719 5720 5721 5721 5721 5721 5720 5721 5721 5724 5725 5729 5733 5733 5734 5738 5740 5740 5742 5743 5745 5748 5751 5751
5688 5691 5690 5692 5695 5698 5698 5698 5710 5710 5709 5709 5711 5713 5715 5715 5716 5717 5718 5719 5718 5718 5718 5718 5717 5718 5719 5720 5720 5719 5719 5719 5720 5722 5724 5726 5727 5730 5731 5730 5732 5735 5736 5739 5739 5741 5743 5745 5744
5677 5679 5687 5686 5685 5688 5691 5694 5704 5704 5705 5705 5707 5708 5711 5711 5712 5713 5714 5716 5716 5716 5715 5715 5715 5715 5716 5718 5718 5718 5718 5718 5719 5722 5724 5724 5725 5727 5727 5730 5729 5730 5732 5732 5734 5733 5736 5735 5735
5666 5673 5676 5674 5677 5681 5683 5687 5697 5698 5700 5701 5703 5704 5706 5707 5707 5710 5711 5711 5712 5713 5713 5713 5712 5712 5712 5713 5715 5716 5717 5717 5718 5719 5719 5720 5719 5719 5723 5724 5725 5726 5726 5726 5725 5727 5728 5727 5728
5661 5664 5668 5671 5673 5673 5676 5681 5691 5692 5695 5697 5698 5700 5701 5704 5704 5705 5706 5707 5707 5708 5709 5710 5709 5709 5709 5708 5709 5711 5713 5713 5713 5714 5713 5713 5713 5715 5717 5718 5719 5719 5719 5719 5719 5720 5720 5719 5719
5651 5655 5659 5660 5664 5667 5670 5673 5683 5687 5689 5691 5694 5696 5697 5699 5700 5701 5701 5703 5704 5704 5704 5705 5706 5706 5705 5705 5705 5706 5707 5707 5708 5708 5708 5709 5709 5709 5710 5709 5709 5710 5710 5710 5710 5710 5710 5709 5707